Weather History for Chatham, MA

Change the Weather History Date:

Thursday, June 5, 2014

  Actual Average Record
Temperature  
Mean Temperature 58 °F -  
Max Temperature 60 °F 64 °F 74 °F (1973)
Min Temperature 55 °F 51 °F 46 °F (1991)
Degree Days  
Heating Degree Days 8    
Growing Degree Days 8 (Base 50)    
Moisture  
Dew Point 57 °F    
Average Humidity 96    
Maximum Humidity 100    
Minimum Humidity 89    
Precipitation  
Precipitation 0.89 in - - ()
Sea Level Pressure  
Sea Level Pressure 29.68 in    
Wind  
Wind Speed 3 mph (NNE)    
Max Wind Speed 12 mph    
Max Gust Speed 24 mph    
Visibility 5 miles    
Events Fog , Rain    
Averages and records for this station are not official NWS values.
T = Trace of Precipitation, MM = Missing Value Source: NWS Daily Summary

Daily Weather History Graph

Daily Weather History Graph

Search for Another Location

Airport:

Trip Planner

Search our weather history database for the weather conditions in past years. The results will help you decide how hot, cold, wet, or windy it might be!

Date:

Astronomy

Jun. 05, 2014 Rise Set
Actual Time 5:06 AM EDT 8:10 PM EDT
Civil Twilight 4:32 AM EDT 8:44 PM EDT
Nautical Twilight 3:49 AM EDT 9:27 PM EDT
Astronomical Twilight 2:59 AM EDT 10:18 PM EDT
Moon 12:24 PM EDT (6/5) 12:33 AM EDT (6/5)
Length of Visible Light 16h 11m
Length of Day
15h 04m
Waxing Crescent, 48% of the Moon is Illuminated
Jun 5
Waxing Crescent
Jun 5
First Quarter
Jun 13
Full
Jun 19
Last Quarter
Jun 27
New

Hourly Weather History & Observations

Time (EDT) Temp. Dew Point Humidity Pressure Visibility Wind Dir Wind Speed Gust Speed Precip Events Conditions
12:52 AM 55.0 °F 53.1 °F 93% 29.81 in 10.0 mi Calm Calm - N/A   Clear
1:15 AM 55.9 °F 53.1 °F 90% 29.79 in 10.0 mi Calm Calm - N/A   Mostly Cloudy
1:34 AM 55.9 °F 54.0 °F 93% 29.79 in 10.0 mi Calm Calm - N/A   Overcast
1:52 AM 55.9 °F 54.0 °F 93% 29.79 in 10.0 mi Calm Calm - N/A   Overcast
2:52 AM 57.0 °F 55.0 °F 93% 29.78 in 10.0 mi Calm Calm - N/A   Overcast
3:07 AM 57.0 °F 54.0 °F 89% 29.77 in 10.0 mi South 3.5 mph - N/A   Overcast
3:21 AM 57.0 °F 55.0 °F 93% 29.77 in 10.0 mi Calm Calm - N/A   Overcast
3:32 AM 57.0 °F 55.0 °F 93% 29.77 in 10.0 mi Calm Calm - N/A   Overcast
3:52 AM 57.0 °F 55.0 °F 93% 29.78 in 10.0 mi Calm Calm - N/A   Overcast
4:48 AM 57.2 °F 55.4 °F 94% 29.78 in 1.8 mi Calm Calm - 0.06 in Rain Rain
4:52 AM 57.0 °F 55.9 °F 96% 29.78 in 1.8 mi Variable 3.5 mph - 0.10 in Rain Rain
5:07 AM 57.9 °F 57.0 °F 97% 29.76 in 3.0 mi NE 4.6 mph - 0.11 in Rain Light Rain
5:18 AM 57.9 °F 57.0 °F 97% 29.76 in 7.0 mi NNW 3.5 mph - 0.11 in Rain Light Rain
5:52 AM 57.0 °F 55.9 °F 96% 29.77 in 3.0 mi SE 3.5 mph - 0.11 in   Overcast
6:18 AM 57.0 °F 55.9 °F 96% 29.76 in 1.8 mi Calm Calm - N/A   Overcast
6:29 AM 55.9 °F 55.9 °F 100% 29.76 in 0.5 mi Calm Calm - N/A Fog Fog
6:52 AM 55.9 °F 55.9 °F 100% 29.77 in 0.2 mi Calm Calm - 0.00 in Fog , Rain Light Rain
7:19 AM 57.9 °F 57.0 °F 97% 29.76 in 0.5 mi Calm Calm - 0.00 in Fog Fog
7:43 AM 59.0 °F 57.9 °F 96% 29.75 in 1.0 mi ESE 3.5 mph - 0.00 in   Overcast
7:50 AM 59.0 °F 57.2 °F 94% 29.75 in 0.5 mi SE 3.5 mph - 0.00 in Fog Fog
7:52 AM 59.0 °F 57.9 °F 96% 29.75 in 0.5 mi SE 4.6 mph - 0.00 in Fog Fog
8:32 AM 57.9 °F 57.9 °F 100% 29.72 in 0.2 mi ENE 4.6 mph - N/A Fog Fog
8:52 AM 59.0 °F 59.0 °F 100% 29.73 in 0.5 mi ENE 3.5 mph - N/A Fog Fog
9:09 AM 59.0 °F 57.9 °F 96% 29.73 in 0.2 mi East 3.5 mph - N/A Fog Fog
9:52 AM 59.0 °F 59.0 °F 100% 29.74 in 0.2 mi Calm Calm - 0.00 in Fog , Rain Light Rain
10:07 AM 60.1 °F 59.0 °F 96% 29.73 in 0.5 mi NE 4.6 mph - 0.01 in Fog , Rain Light Rain
10:27 AM 60.1 °F 59.0 °F 96% 29.72 in 2.0 mi East 4.6 mph - 0.05 in Rain Rain
10:59 AM 60.1 °F 60.1 °F 100% 29.71 in 3.0 mi ENE 5.8 mph - 0.01 in Rain Light Rain
11:47 AM 59.0 °F 57.2 °F 94% 29.67 in 2.0 mi NE 6.9 mph - 0.08 in Rain Light Rain
11:52 AM 59.0 °F 57.9 °F 96% 29.67 in 1.8 mi NE 9.2 mph - 0.09 in Rain Rain
12:44 PM 57.9 °F 57.9 °F 100% 29.64 in 2.0 mi Variable 3.5 mph - 0.11 in Rain Light Rain
12:52 PM 57.0 °F 57.0 °F 100% 29.64 in 1.8 mi NNE 6.9 mph - 0.15 in Rain Rain
1:04 PM 57.9 °F 57.0 °F 97% 29.64 in 2.5 mi ENE 8.1 mph - 0.05 in Rain Rain
1:52 PM 59.0 °F 59.0 °F 100% 29.60 in 1.8 mi ENE 11.5 mph - 0.28 in Rain Heavy Rain
2:00 PM 60.1 °F 59.0 °F 96% 29.58 in 2.0 mi NE 11.5 mph - 0.04 in Rain Heavy Rain
2:16 PM 59.0 °F 59.0 °F 100% 29.57 in 4.0 mi NNE 8.1 mph - 0.06 in Rain Light Rain
2:32 PM 59.0 °F 59.0 °F 100% 29.56 in 2.5 mi NNE 8.1 mph - 0.07 in Rain Light Rain
2:52 PM 59.0 °F 59.0 °F 100% 29.56 in 1.5 mi North 6.9 mph - 0.11 in Rain Light Rain
3:08 PM 59.0 °F 59.0 °F 100% 29.56 in 2.0 mi Variable 6.9 mph - 0.02 in Rain Light Rain
3:36 PM 60.1 °F 59.0 °F 96% 29.55 in 5.0 mi Variable 6.9 mph - 0.03 in Rain Light Rain
3:48 PM 60.8 °F 59.0 °F 94% 29.55 in 8.0 mi North 8.1 mph - 0.03 in   Overcast
3:52 PM 59.0 °F 57.9 °F 96% 29.55 in 9.0 mi Variable 6.9 mph - 0.03 in   Overcast
4:02 PM 59.0 °F 57.9 °F 96% 29.55 in 7.0 mi NNW 8.1 mph - N/A   Overcast
4:52 PM 57.9 °F 57.0 °F 97% 29.57 in 6.0 mi NNW 11.5 mph 19.6 mph 0.01 in   Overcast
5:50 PM 57.2 °F 57.2 °F 100% 29.58 in 5.0 mi NW 10.4 mph 19.6 mph 0.00 in Rain Light Rain
5:52 PM 57.9 °F 57.0 °F 97% 29.59 in 6.0 mi Variable 6.9 mph 19.6 mph 0.00 in Rain Light Rain
6:06 PM 57.9 °F 57.0 °F 97% 29.59 in 8.0 mi Variable 6.9 mph - 0.01 in Rain Light Rain
6:52 PM 59.0 °F 57.0 °F 93% 29.59 in 10.0 mi North 8.1 mph 24.2 mph 0.01 in   Overcast
7:16 PM 59.0 °F 57.0 °F 93% 29.59 in 10.0 mi North 8.1 mph 21.9 mph N/A   Overcast
7:52 PM 57.9 °F 55.9 °F 93% 29.62 in 10.0 mi NNW 9.2 mph 18.4 mph N/A   Overcast
8:18 PM 57.0 °F 55.9 °F 96% 29.62 in 10.0 mi NNW 8.1 mph - N/A   Overcast
8:40 PM 55.9 °F 55.0 °F 97% 29.64 in 10.0 mi Variable 6.9 mph - N/A   Overcast
8:52 PM 55.9 °F 55.0 °F 97% 29.65 in 10.0 mi NW 8.1 mph - N/A   Overcast
9:52 PM 55.9 °F 55.0 °F 97% 29.67 in 10.0 mi NW 9.2 mph 18.4 mph N/A   Overcast
10:52 PM 55.0 °F 54.0 °F 96% 29.69 in 10.0 mi NNW 6.9 mph - N/A   Overcast
11:14 PM 55.9 °F 55.0 °F 97% 29.69 in 10.0 mi NW 6.9 mph - N/A   Overcast
11:26 PM 55.9 °F 55.0 °F 97% 29.70 in 10.0 mi Variable 6.9 mph - N/A   Overcast
11:52 PM 55.9 °F 55.0 °F 97% 29.72 in 10.0 mi Variable 5.8 mph - N/A   Overcast